Aérodrome :
LOGIN :

S'inscrire | Disclaimer

   EN    FR    IT 

 










Légende :    VFR   VFR Marginal   IFR   IFR Intensif   IFR Très Intensif
Visi : 
Plafond : 
>= 8 km
>= 3000ft
5 à 8 km
1000 à 3000 ft
1500m à 5 km
500 à 1000 ft
800 à 1500m
200 à 500 ft
< 800m
< 200 ft
Symboles :   Orages  Brouillard  Fortes neiges  Fortes précipitations  Vent > 20 kt
SIGMETs :   Divers  Orages  Givrage  Turbulence  Onde Orograph.  Cendres Volcan.







- Altitude de l'aérodrome : 239 ft
- Code IATA : VRN


LIPX - Villafranca Int. Verona

DERNIER METAR :
  • 230420Z 08003KT 8000 SCT020 BKN060 01/M00 Q0999

METARs EXPIRÉS :
  • 230350Z VRB02KT 9000 FEW020 BKN070 01/M00 Q0999
  • 230320Z 18003KT 9000 SCT020 BKN060 01/00 Q1000
  • 230250Z 18003KT 9000 SCT020 BKN060 01/00 Q1000
  • 230220Z 18003KT 9999 SCT020 BKN060 01/00 Q1001
  • 230150Z 15003KT 9999 FEW020 BKN060 01/M01 Q1001

TAF TAF LIPX
Valide du 23 à 03h jusqu'au 23 à 12h UTC


230200Z 2303/2312 VRB05KT 9999 SCT020 BKN050
TEMPO 2303/2309 2000 SN BKN010 BKN040
Pas de NOTAMs connus pour ce terrain.



MET'MAP, la Météo Aéronautique d'un coup d'oeil ! - Copyright ORBIFLY Décembre 2007 - Disclaimer

ORBIFLY MET'MAP TEAM :

Programmation & Développement : Alexandra Zaïnal
Conception & Développement : Baudouin d'Aumeries
Co-Programmation & Développement : Marc-Olivier Méhu
Soutien technique & logistique : Manuel Goepfert

Contact : metmap@orbifly.com




SOURCES & CREDITS :

   NOAA